[[{"header":{"parameterUnit":"m.s-1","parameterCategory":2,"la1":30.2991,"la2":30.254,"lo1":-89.0895,"lo2":-89.0444,"dy":0.0017,"dx":0.0017,"nx":28,"ny":28,"refTime":"2025-05-26T03:00:00:Z","depth":"0","parameterNumber":2,"parameterNumberName":"U-component_of_CURRENTS"},"data":[0,0,0,0,0,0,0,0,0,0,0,0,0,0,0,0,0,0,0,0,0,0,0,0,0,0,0,0,0,0,0,0,0,0,0,0,0,0,0,0,0,0,0,0,0,0,0,0,0,0,0,0,0,0,0,0,0,0,0.2878,0.2879,0,0.2934,0.2934,0.2935,0.2931,0.293,0.2929,0.2929,0.2928,0.2929,0.2929,0,0,0,0,0,0,0,0,0,0,0,0,0,0.2768,0.277,0.2878,0.2879,0.288,0.2934,0.2934,0.2935,0.2931,0.293,0.2929,0.2929,0.2928,0.2928,0.2929,0,0,0,0,0,0,0,0,0,0,0,0,0,0.2817,0.2771,0.2878,0.2886,0.2887,0.2933,0.2934,0.2935,0.2931,0.293,0.2929,0.2928,0.2928,0.2928,0.2929,0.2953,0,0,0.2932,0.2932,0,0,0,0,0,0,0,0,0.2814,0.2821,0.2884,0.2885,0.2887,0.2926,0.2895,0.2939,0.2931,0.2912,0.2929,0.2928,0.2924,0.2925,0.2936,0.2953,0.2953,0.2932,0.2932,0.2933,0.2933,0,0,0,0,0,0,0,0.2811,0.2818,0.2898,0.2885,0.2887,0.2887,0.2892,0.2904,0.292,0.2914,0.2914,0.2924,0.2924,0.2935,0.2935,0.2953,0.2932,0.2933,0.2933,0.2933,0.298,0.298,0,0,0,0,0,0,0.281,0.2816,0.2896,0.29,0.285,0.289,0.2896,0.2913,0.2921,0.2923,0.2925,0.2924,0.2934,0.2934,0.2935,0.2945,0.2933,0.2934,0.2934,0.2979,0.298,0.2981,0,0,0,0,0,0,0.2807,0.2817,0.2894,0.286,0.287,0.2893,0.2912,0.2914,0.2925,0.2931,0.293,0.2932,0.2933,0.2934,0.2946,0.2945,0.2934,0.2935,0.2978,0.2979,0.298,0.2975,0,0,0,0,0,0,0.2804,0.2816,0.2827,0.286,0.2872,0.292,0.2913,0.2916,0.2934,0.2932,0.2937,0.2936,0.2932,0.2945,0.2947,0.2946,0.2935,0.2977,0.2979,0.298,0.2974,0.2976,0.2977,0,0,0,0,0,0.28,0.2817,0.2827,0.2837,0.2887,0.2921,0.2927,0.2938,0.2935,0.2943,0.2946,0.2936,0.2955,0.2947,0.2949,0.2948,0.2977,0.2978,0.298,0.2974,0.2976,0.2977,0,0,0,0,0,0,0.2774,0.282,0.2831,0.2861,0.2889,0.2921,0.2932,0.2942,0.2954,0.2951,0.2949,0.2949,0.2959,0.2961,0.2952,0.2967,0.2963,0.2965,0.2958,0.296,0.2961,0.3009,0.2936,0,0,0,0,0,0.2776,0.28,0.2841,0.2864,0.288,0.2907,0.2923,0.2935,0.2951,0.2956,0.296,0.2965,0.297,0.297,0.2979,0.299,0.3094,0.2991,0.2992,0.2993,0.3036,0.3231,0.3256,0.2986,0.2986,0.2986,0,0,0.2769,0.28,0.2812,0.286,0.2882,0.2901,0.2913,0.2941,0.2951,0.2954,0.2965,0.2974,0.2977,0.2986,0.299,0.2983,0.3116,0.2995,0.2996,0.3039,0.3235,0.3263,0.3287,0.2987,0.2987,0.2987,0,0,0.2764,0.28,0.2813,0.2839,0.288,0.2901,0.2909,0.2946,0.2957,0.2974,0.2978,0.3002,0.2995,0.3014,0.3015,0.3038,0.3122,0.3021,0.3061,0.3248,0.3274,0.3298,0.3434,0.347,0.3016,0.3016,0.3016,0,0.2752,0.279,0.2821,0.284,0.2871,0.2898,0.2925,0.2934,0.2967,0.3003,0.2972,0.304,0.3016,0.3072,0.3057,0.3043,0.3162,0.3046,0.3256,0.3282,0.3306,0.3441,0.3481,0.3016,0.3016,0.3016,0.3016,0,0.2758,0.279,0.2802,0.2838,0.2867,0.2901,0.2928,0.2958,0.2973,0.3,0.3068,0.307,0.313,0.3096,0.3067,0.321,0.324,0.3242,0.3259,0.3334,0.3469,0.3511,0.3016,0.3016,0.3016,0.3016,0,0,0.2736,0.2797,0.28,0.2845,0.2884,0.2923,0.2943,0.3009,0.3073,0.3081,0.3192,0.316,0.3208,0.3218,0.3212,0.3329,0.3545,0.3351,0.3361,0.3499,0.3964,0.3908,0.3948,0.3609,0.3617,0.3623,0.3979,0,0.2741,0.2798,0.2815,0.2875,0.2928,0.2965,0.2998,0.3055,0.3107,0.3212,0.3246,0.3332,0.3239,0.3298,0.3397,0.353,0.3663,0.3449,0.3862,0.3873,0.3827,0.3998,0.3844,0.4143,0.402,0.4027,0.4032,0,0.2762,0.2805,0.2874,0.2968,0.2992,0.3018,0.315,0.3181,0.3301,0.3354,0.3453,0.3505,0.3644,0.3577,0.3869,0.3752,0.3867,0.3955,0.3972,0.3965,0.3898,0.4054,0.4225,0.4055,0.4097,0.4092,0.4088,0,0.2815,0.2864,0.294,0.2965,0.3047,0.3097,0.314,0.3242,0.3327,0.3488,0.3605,0.3748,0.3886,0.4054,0.4162,0.4078,0.4518,0.4431,0.4492,0.4487,0.4461,0.4441,0.4535,0.4702,0.4701,0.47,0.4699,0,0.2872,0.2938,0.2974,0.3028,0.3128,0.3157,0.3292,0.3353,0.3497,0.361,0.3704,0.3855,0.4032,0.425,0.4317,0.4547,0.4661,0.4571,0.4614,0.4444,0.4419,0.4351,0.4221,0.4713,0.471,0.4708,0.4705,0,0.2969,0.2988,0.3085,0.3148,0.3175,0.3256,0.3381,0.3461,0.3598,0.3771,0.3844,0.4058,0.4303,0.4461,0.4766,0.4774,0.4838,0.5018,0.477,0.4775,0.4598,0.4473,0.4553,0.442,0.5166,0.5167,0.5168,0,0.3051,0.3101,0.3173,0.321,0.3246,0.335,0.3402,0.3516,0.3595,0.3856,0.3938,0.4247,0.439,0.4819,0.4932,0.5134,0.4913,0.51,0.4886,0.4634,0.453,0.4319,0.4182,0.4846,0.4844,0.4843,0.4842,0,0.3183,0.319,0.3243,0.3299,0.3353,0.3417,0.3495,0.3581,0.3688,0.3841,0.4022,0.4181,0.4555,0.4704,0.4986,0.5058,0.4813,0.5076,0.493,0.4401,0.4078,0.3951,0.452,0.483,0.4831,0.4832,0.4833,0.4833,0.3267,0.3301,0.3318,0.3366,0.3407,0.3415,0.343,0.3506,0.3621,0.3743,0.3966,0.4124,0.4426,0.4786,0.4834,0.4809,0.4749,0.4688,0.4599,0.4443,0.4173,0.4682,0.4947,0.4949,0.495,0.4951,0.4953,0,0.3305,0.3308,0.3364,0.3366,0.3342,0.338,0.3414,0.3381,0.3413,0.3598,0.3735,0.4001,0.4194,0.4371,0.4497,0.4365,0.4176,0.4241,0.3903,0.3823,0.4421,0.4257,0.4246,0.4246,0.4246,0.4246,0.4246,0.4247,0.3325,0.3333,0.3321,0.3265,0.3247,0.3165,0.3139,0.3125,0.3203,0.3288,0.34,0.3599,0.39,0.4117,0.4009,0.3916,0.357,0.3476,0.3423,0.38,0.3832,0.3863,0.3682,0.355,0.3549,0.2712,0.2705,0.27]},{"header":{"parameterUnit":"m.s-1","parameterCategory":2,"la1":30.2991,"la2":30.254,"lo1":-89.0895,"lo2":-89.0444,"dy":0.0017,"dx":0.0017,"nx":28,"ny":28,"refTime":"2025-05-26T03:00:00:Z","depth":"0","parameterNumber":3,"parameterNumberName":"V-component_of_CURRENTS"},"data":[0,0,0,0,0,0,0,0,0,0,0,0,0,0,0,0,0,0,0,0,0,0,0,0,0,0,0,0,0,0,0,0,0,0,0,0,0,0,0,0,0,0,0,0,0,0,0,0,0,0,0,0,0,0,0,0,0,0,-0.0276,-0.0277,0,-0.0383,-0.0385,-0.0386,-0.0446,-0.0446,-0.0446,-0.0446,-0.0578,-0.0581,-0.0585,0,0,0,0,0,0,0,0,0,0,0,0,0,-0.0152,-0.0153,-0.0276,-0.0277,-0.0278,-0.0383,-0.0385,-0.0386,-0.0446,-0.0446,-0.0446,-0.0446,-0.0577,-0.0581,-0.0585,0,0,0,0,0,0,0,0,0,0,0,0,0,-0.0228,-0.0154,-0.0275,-0.0319,-0.0324,-0.0383,-0.0385,-0.0387,-0.0446,-0.0446,-0.0446,-0.0446,-0.0575,-0.0581,-0.0586,-0.0617,0,0,-0.0602,-0.0604,0,0,0,0,0,0,0,0,-0.0224,-0.0233,-0.0312,-0.0316,-0.0322,-0.04,-0.0389,-0.0465,-0.0446,-0.0401,-0.0446,-0.0446,-0.052,-0.053,-0.0551,-0.0623,-0.0629,-0.0602,-0.0605,-0.0608,-0.0609,0,0,0,0,0,0,0,-0.0218,-0.0229,-0.032,-0.0313,-0.0319,-0.0344,-0.0355,-0.0404,-0.046,-0.0405,-0.0409,-0.0419,-0.0523,-0.0546,-0.0555,-0.0631,-0.0602,-0.0607,-0.061,-0.0612,-0.0728,-0.0728,0,0,0,0,0,0,-0.0201,-0.0224,-0.0316,-0.0323,-0.027,-0.0346,-0.0358,-0.0376,-0.0459,-0.0472,-0.0419,-0.0421,-0.0537,-0.0549,-0.056,-0.058,-0.0608,-0.0612,-0.0615,-0.0729,-0.0728,-0.0728,0,0,0,0,0,0,-0.0198,-0.0208,-0.0312,-0.0274,-0.0289,-0.0347,-0.0368,-0.0378,-0.04,-0.0469,-0.0482,-0.0429,-0.0538,-0.0553,-0.0601,-0.0586,-0.0615,-0.062,-0.0729,-0.0728,-0.0728,-0.0633,0,0,0,0,0,0,-0.0194,-0.0207,-0.0214,-0.0273,-0.029,-0.0346,-0.0368,-0.038,-0.0406,-0.041,-0.0483,-0.0495,-0.0539,-0.0593,-0.0606,-0.0594,-0.0624,-0.0729,-0.0729,-0.0728,-0.0637,-0.063,-0.0625,0,0,0,0,0,-0.0189,-0.0202,-0.0214,-0.0225,-0.0298,-0.0347,-0.0358,-0.04,-0.0406,-0.0419,-0.0463,-0.0493,-0.0602,-0.0598,-0.0613,-0.0601,-0.0729,-0.0729,-0.0728,-0.0639,-0.0631,-0.0625,0,0,0,0,0,0,-0.0154,-0.0211,-0.0225,-0.0254,-0.0294,-0.0356,-0.0372,-0.0395,-0.044,-0.0441,-0.05,-0.0516,-0.0555,-0.0594,-0.0588,-0.0636,-0.0668,-0.0671,-0.0595,-0.0588,-0.0582,-0.0495,-0.0628,0,0,0,0,0,-0.0147,-0.0171,-0.0224,-0.0247,-0.0263,-0.0313,-0.0336,-0.0363,-0.041,-0.043,-0.0478,-0.0526,-0.0568,-0.0589,-0.0642,-0.0668,-0.0625,-0.067,-0.0664,-0.0658,-0.0599,-0.0511,-0.0489,-0.0728,-0.0728,-0.0728,0,0,-0.0138,-0.0172,-0.0186,-0.024,-0.0272,-0.0287,-0.0327,-0.036,-0.0363,-0.0437,-0.046,-0.0515,-0.0574,-0.0605,-0.0624,-0.0632,-0.0577,-0.0658,-0.0652,-0.0595,-0.0508,-0.0483,-0.0462,-0.0728,-0.0728,-0.0728,0,0,-0.0125,-0.0162,-0.017,-0.0198,-0.0241,-0.0272,-0.0275,-0.0332,-0.0348,-0.0386,-0.0429,-0.0453,-0.0545,-0.0554,-0.0576,-0.0564,-0.0555,-0.0608,-0.0495,-0.0412,-0.0389,-0.0369,-0.0306,-0.0281,-0.0594,-0.0594,-0.0594,0,-0.0109,-0.0117,-0.0179,-0.0188,-0.0185,-0.0255,-0.0239,-0.028,-0.0343,-0.0316,-0.0383,-0.0422,-0.0502,-0.0464,-0.0482,-0.0543,-0.0499,-0.0518,-0.0396,-0.0375,-0.0355,-0.0296,-0.0269,-0.059,-0.059,-0.0591,-0.0591,0,-0.0095,-0.0094,-0.01,-0.0123,-0.014,-0.0141,-0.0188,-0.0197,-0.0227,-0.024,-0.0223,-0.0312,-0.0301,-0.0365,-0.0434,-0.0339,-0.0356,-0.0402,-0.0397,-0.0324,-0.0269,-0.0242,-0.0583,-0.0585,-0.0586,-0.0587,0,0,-0.0054,-0.0079,-0.0075,-0.0032,-0.0089,-0.0078,-0.0087,-0.0064,0.0012,-0.0079,0.0039,-0.0087,-0.0088,-0.0111,-0.0183,-0.0146,-0.003,-0.0214,-0.0212,-0.0121,0.0161,0.0099,0.0122,-0.0047,-0.0041,-0.0037,0.0137,0,-0.0003,0.0038,-0.0005,0.0063,0.0105,0.006,0.0088,0.0095,0.0094,0.0176,0.0124,0.0175,-0.0005,0.0031,0.0035,0.0005,0.0049,-0.0072,0.0051,0.0055,0.0019,0.0154,0.0074,0.022,0.0163,0.0168,0.0171,0,0.0061,0.0087,0.0166,0.0245,0.0261,0.0286,0.0398,0.0409,0.0471,0.0483,0.0524,0.0491,0.0532,0.0371,0.0401,0.0337,0.0271,0.0221,0.0227,0.0173,0.0046,0.0138,0.0271,-0.0011,0.0212,0.0209,0.0206,0,0.0209,0.0238,0.0332,0.0344,0.0383,0.0447,0.0478,0.0534,0.0617,0.0724,0.0826,0.0834,0.0906,0.0828,0.0664,0.0573,0.0707,0.0576,0.0466,0.0459,0.0423,0.0404,0.0335,0.0639,0.0639,0.0639,0.0638,0,0.0329,0.0415,0.0422,0.0484,0.063,0.0611,0.0789,0.0815,0.0934,0.1087,0.1026,0.1174,0.1029,0.1044,0.0844,0.0761,0.0861,0.0555,0.0532,0.0443,0.0425,0.0199,0.0049,0.0645,0.0644,0.0642,0.0641,0,0.0501,0.0495,0.0619,0.0679,0.0712,0.0829,0.0959,0.109,0.1176,0.1389,0.1448,0.1515,0.1534,0.1352,0.1274,0.1042,0.0787,0.0859,0.0748,0.0708,0.0299,0.0157,0.0185,0.0084,0.0806,0.0806,0.0806,0,0.06,0.0674,0.0767,0.0835,0.0871,0.1017,0.1118,0.1209,0.1349,0.1588,0.1722,0.1831,0.1909,0.1773,0.1415,0.1151,0.0854,0.0863,0.0656,0.0333,0.016,0.0072,-0.0023,0.0637,0.0636,0.0635,0.0634,0,0.0779,0.0803,0.0884,0.1012,0.1127,0.1263,0.1419,0.1566,0.17,0.1891,0.2144,0.225,0.2129,0.1881,0.1498,0.1231,0.0655,0.083,0.0554,0.0102,-0.0044,-0.0174,0.0437,0.0624,0.0625,0.0625,0.0626,0.0626,0.0904,0.0987,0.1067,0.1195,0.1317,0.1482,0.1626,0.1806,0.2053,0.2345,0.2422,0.2613,0.2197,0.1693,0.1328,0.0557,0.0622,0.0267,0.0153,0.0117,-0.0068,0.0512,0.0616,0.0617,0.0618,0.0618,0.0619,0,0.1029,0.1104,0.123,0.1378,0.1519,0.1557,0.1799,0.1961,0.2247,0.2527,0.2744,0.2637,0.2057,0.1442,0.0469,-0.0042,-0.0238,-0.0341,-0.0516,-0.0558,0.001,-0.0098,-0.0213,-0.0213,-0.0213,-0.0213,-0.0212,-0.0212,0.1108,0.123,0.1282,0.1512,0.1617,0.183,0.1968,0.2224,0.2458,0.2802,0.2949,0.3033,0.248,0.0729,-0.0464,-0.0719,-0.1071,-0.1122,-0.1233,-0.0949,-0.0904,-0.0861,-0.1,-0.1302,-0.1304,-0.1786,-0.1792,-0.1796]}],[{"header":{"parameterUnit":"m.s-1","parameterCategory":2,"la1":30.2991,"la2":30.254,"lo1":-89.0895,"lo2":-89.0444,"dy":0.0017,"dx":0.0017,"nx":28,"ny":28,"refTime":"2025-05-26T03:00:00:Z","depth":"2","parameterNumber":2,"parameterNumberName":"U-component_of_CURRENTS"},"data":[0,0,0,0,0,0,0,0,0,0,0,0,0,0,0,0,0,0,0,0,0,0,0,0,0,0,0,0,0,0,0,0,0,0,0,0,0,0,0,0,0,0,0,0,0,0,0,0,0,0,0,0,0,0,0,0,0,0,0.2448,0.2448,0,0.2493,0.2493,0.2494,0.252,0.2521,0.2521,0.2521,0.2535,0.2535,0.2535,0,0,0,0,0,0,0,0,0,0,0,0,0,0.2374,0.2375,0.2448,0.2448,0.2449,0.2493,0.2493,0.2494,0.252,0.2521,0.2521,0.2522,0.2535,0.2535,0.2535,0,0,0,0,0,0,0,0,0,0,0,0,0,0.2408,0.2375,0.2447,0.247,0.2473,0.2493,0.2493,0.2494,0.252,0.2521,0.2521,0.2522,0.2535,0.2535,0.2534,0.2522,0,0,0.2534,0.2534,0,0,0,0,0,0,0,0,0.2406,0.241,0.2466,0.2469,0.2472,0.2505,0.2473,0.2503,0.252,0.2499,0.2521,0.2522,0.2523,0.2524,0.2527,0.2523,0.2523,0.2534,0.2534,0.2534,0.2534,0,0,0,0,0,0,0,0.2404,0.2409,0.2462,0.2467,0.247,0.2475,0.248,0.2478,0.2504,0.25,0.2503,0.2513,0.2524,0.2527,0.2528,0.2523,0.2534,0.2534,0.2534,0.2534,0.2586,0.2587,0,0,0,0,0,0,0.2405,0.2406,0.2461,0.2464,0.2444,0.2476,0.2482,0.2491,0.2505,0.2509,0.2513,0.2515,0.2527,0.2528,0.2528,0.2587,0.2534,0.2534,0.2534,0.2584,0.2586,0.2588,0,0,0,0,0,0,0.2403,0.2409,0.2459,0.2439,0.2446,0.2477,0.2487,0.2491,0.2511,0.2515,0.2518,0.253,0.2527,0.2528,0.2545,0.2585,0.2534,0.2534,0.2583,0.2585,0.2587,0.2657,0,0,0,0,0,0,0.2401,0.2408,0.2413,0.2439,0.2447,0.2478,0.2487,0.2492,0.2517,0.252,0.253,0.2531,0.2528,0.2545,0.2545,0.2584,0.2534,0.2581,0.2584,0.2586,0.2653,0.2661,0.2668,0,0,0,0,0,0.2398,0.2393,0.2413,0.242,0.2454,0.2479,0.2483,0.2505,0.2517,0.2524,0.2539,0.2532,0.2562,0.2546,0.2545,0.2585,0.258,0.2583,0.2586,0.265,0.266,0.2668,0,0,0,0,0,0,0.2346,0.2397,0.2419,0.2426,0.2459,0.2485,0.2491,0.2513,0.253,0.2534,0.254,0.2542,0.2571,0.2565,0.2547,0.2608,0.2573,0.2577,0.2622,0.2631,0.2639,0.2685,0.2534,0,0,0,0,0,0.2344,0.2363,0.2408,0.2414,0.2433,0.2468,0.2481,0.2502,0.2522,0.2532,0.2544,0.256,0.258,0.2595,0.2598,0.2628,0.2674,0.2656,0.2664,0.267,0.2708,0.2825,0.2848,0.2598,0.2598,0.2598,0,0,0.2323,0.2354,0.2363,0.2406,0.2432,0.2462,0.2476,0.2501,0.2536,0.2528,0.2569,0.2578,0.259,0.2626,0.2641,0.2631,0.2759,0.2674,0.268,0.2715,0.2831,0.2856,0.2878,0.26,0.26,0.2599,0,0,0.2301,0.2325,0.2345,0.2377,0.2428,0.2453,0.2467,0.251,0.2542,0.2572,0.2591,0.2638,0.2639,0.269,0.2707,0.2761,0.2787,0.275,0.284,0.2953,0.2976,0.2996,0.3062,0.3088,0.2766,0.2766,0.2766,0,0.228,0.2326,0.235,0.2382,0.2428,0.2454,0.2502,0.2521,0.2566,0.2629,0.2587,0.2686,0.268,0.2791,0.2807,0.2784,0.2837,0.2802,0.2967,0.2989,0.3009,0.3071,0.3099,0.277,0.2769,0.2769,0.2769,0,0.2288,0.2331,0.2342,0.2408,0.2443,0.2486,0.2535,0.2581,0.2615,0.2662,0.2766,0.2772,0.2855,0.2849,0.2838,0.299,0.2976,0.2955,0.295,0.3039,0.3098,0.3126,0.2775,0.2774,0.2773,0.2772,0,0,0.2265,0.2342,0.2354,0.242,0.2482,0.2524,0.2584,0.2695,0.2778,0.2807,0.2937,0.2971,0.3011,0.3036,0.3048,0.3137,0.3292,0.3113,0.3117,0.319,0.3529,0.3341,0.3353,0.3311,0.3316,0.3321,0.3504,0,0.2295,0.2378,0.2405,0.2502,0.2574,0.2629,0.2693,0.2784,0.2848,0.2958,0.3029,0.3115,0.3071,0.3121,0.3212,0.328,0.3374,0.3243,0.3423,0.3428,0.3261,0.3382,0.3115,0.3241,0.3532,0.3536,0.354,0,0.2349,0.2402,0.2505,0.2632,0.2667,0.2714,0.2884,0.2937,0.3078,0.3129,0.3246,0.3284,0.3437,0.3356,0.3566,0.3489,0.3529,0.356,0.3568,0.3398,0.3294,0.3204,0.3281,0.3586,0.3583,0.3579,0.3576,0,0.2407,0.2506,0.2607,0.2643,0.2748,0.2828,0.2891,0.302,0.3091,0.3256,0.3326,0.3494,0.3576,0.3686,0.3714,0.3682,0.3905,0.3867,0.374,0.3726,0.3537,0.3494,0.4031,0.403,0.403,0.4029,0.4029,0,0.2473,0.2556,0.2648,0.2696,0.281,0.2891,0.302,0.3093,0.3226,0.3312,0.3425,0.3511,0.3666,0.3776,0.3807,0.3847,0.399,0.3797,0.3784,0.3543,0.3502,0.3826,0.38,0.4036,0.4035,0.4033,0.4032,0,0.249,0.2575,0.2664,0.278,0.2837,0.2901,0.3031,0.3097,0.3248,0.3365,0.3422,0.359,0.3752,0.3852,0.4022,0.3941,0.4004,0.3968,0.364,0.3582,0.3737,0.3712,0.3916,0.3911,0.3907,0.3904,0.3901,0,0.2478,0.2541,0.2665,0.2694,0.2736,0.2856,0.2914,0.3075,0.3126,0.3376,0.3405,0.3634,0.3716,0.3879,0.3847,0.39,0.3978,0.3602,0.3484,0.3771,0.3738,0.3719,0.37,0.3269,0.3261,0.3255,0.325,0,0.2391,0.2453,0.2498,0.2576,0.2644,0.272,0.2827,0.2887,0.307,0.3209,0.3374,0.3492,0.3647,0.3569,0.358,0.3554,0.3575,0.347,0.3934,0.3295,0.3164,0.3129,0.3133,0.3194,0.32,0.3204,0.3207,0.3209,0.2276,0.2267,0.234,0.2406,0.2489,0.2555,0.2586,0.2704,0.2825,0.2921,0.3123,0.3178,0.3238,0.3135,0.3085,0.3064,0.3296,0.3132,0.3153,0.318,0.3028,0.2892,0.2843,0.2847,0.285,0.2852,0.2855,0,0.2094,0.2129,0.2159,0.2237,0.2265,0.2398,0.2489,0.2486,0.2579,0.2647,0.273,0.2517,0.2496,0.2634,0.2527,0.2503,0.2496,0.241,0.2397,0.2455,0.2505,0.2319,0.1947,0.1944,0.1941,0.1939,0,0,0.1983,0.1956,0.1991,0.2001,0.2087,0.2109,0.215,0.2173,0.2216,0.2128,0.2107,0.218,0.2458,0.2092,0.2099,0.2028,0.2212,0.195,0.2681,0.272,0.2766,0.2931,0.2708,0,0,0,0,0]},{"header":{"parameterUnit":"m.s-1","parameterCategory":2,"la1":30.2991,"la2":30.254,"lo1":-89.0895,"lo2":-89.0444,"dy":0.0017,"dx":0.0017,"nx":28,"ny":28,"refTime":"2025-05-26T03:00:00:Z","depth":"2","parameterNumber":3,"parameterNumberName":"V-component_of_CURRENTS"},"data":[0,0,0,0,0,0,0,0,0,0,0,0,0,0,0,0,0,0,0,0,0,0,0,0,0,0,0,0,0,0,0,0,0,0,0,0,0,0,0,0,0,0,0,0,0,0,0,0,0,0,0,0,0,0,0,0,0,0,-0.0562,-0.0563,0,-0.0654,-0.0655,-0.0657,-0.0746,-0.0747,-0.0748,-0.0749,-0.0911,-0.0914,-0.0918,0,0,0,0,0,0,0,0,0,0,0,0,0,-0.0499,-0.05,-0.0562,-0.0563,-0.0563,-0.0654,-0.0656,-0.0657,-0.0746,-0.0747,-0.0748,-0.0749,-0.091,-0.0914,-0.0918,0,0,0,0,0,0,0,0,0,0,0,0,0,-0.0555,-0.05,-0.0562,-0.0616,-0.0622,-0.0654,-0.0656,-0.0658,-0.0746,-0.0747,-0.0749,-0.075,-0.0908,-0.0914,-0.0919,-0.0926,0,0,-0.0935,-0.0937,0,0,0,0,0,0,0,0,-0.0552,-0.0558,-0.0608,-0.0613,-0.0619,-0.0687,-0.0693,-0.0749,-0.0746,-0.0702,-0.0749,-0.075,-0.0839,-0.085,-0.0869,-0.0933,-0.094,-0.0935,-0.0939,-0.0941,-0.0942,0,0,0,0,0,0,0,-0.0548,-0.0555,-0.0602,-0.0608,-0.0615,-0.0649,-0.0658,-0.0704,-0.0766,-0.0706,-0.0712,-0.0717,-0.0844,-0.0863,-0.0873,-0.0942,-0.0935,-0.094,-0.0943,-0.0945,-0.1071,-0.1071,0,0,0,0,0,0,-0.0527,-0.0551,-0.0599,-0.0604,-0.0584,-0.0648,-0.0659,-0.0667,-0.0765,-0.0779,-0.0716,-0.0721,-0.0854,-0.0867,-0.0879,-0.0911,-0.0941,-0.0946,-0.0949,-0.107,-0.1071,-0.1071,0,0,0,0,0,0,-0.0525,-0.053,-0.0595,-0.0577,-0.0587,-0.0647,-0.0656,-0.0668,-0.0703,-0.077,-0.0787,-0.074,-0.0855,-0.0872,-0.093,-0.0917,-0.0948,-0.0953,-0.107,-0.107,-0.1071,-0.0962,0,0,0,0,0,0,-0.0523,-0.0529,-0.0534,-0.0575,-0.0587,-0.0613,-0.0654,-0.0669,-0.0701,-0.071,-0.0796,-0.0812,-0.0858,-0.0922,-0.0936,-0.0925,-0.0957,-0.107,-0.107,-0.1071,-0.0966,-0.0959,-0.0953,0,0,0,0,0,-0.052,-0.0515,-0.0534,-0.054,-0.059,-0.0612,-0.0622,-0.0671,-0.0701,-0.071,-0.0773,-0.081,-0.0934,-0.0926,-0.0942,-0.0933,-0.107,-0.107,-0.1071,-0.0969,-0.096,-0.0953,0,0,0,0,0,0,-0.0494,-0.0525,-0.0546,-0.0553,-0.058,-0.0626,-0.064,-0.0672,-0.0728,-0.0746,-0.0813,-0.0833,-0.0883,-0.0925,-0.0915,-0.0973,-0.1007,-0.1011,-0.0925,-0.0917,-0.0911,-0.0836,-0.0961,0,0,0,0,0,-0.0487,-0.0494,-0.0527,-0.0535,-0.0545,-0.0594,-0.0613,-0.0646,-0.0695,-0.0722,-0.0783,-0.0847,-0.0893,-0.0919,-0.0977,-0.1001,-0.1009,-0.1008,-0.1001,-0.0995,-0.0947,-0.0938,-0.0924,-0.1072,-0.1072,-0.1072,0,0,-0.0479,-0.0497,-0.0502,-0.0529,-0.0559,-0.0571,-0.0611,-0.0637,-0.0653,-0.073,-0.0781,-0.0835,-0.09,-0.0933,-0.0957,-0.0966,-0.0968,-0.0996,-0.099,-0.0944,-0.0936,-0.0921,-0.0908,-0.1072,-0.1072,-0.1072,0,0,-0.0463,-0.0482,-0.0484,-0.05,-0.0535,-0.056,-0.0566,-0.0618,-0.0646,-0.0694,-0.0749,-0.0777,-0.0877,-0.0888,-0.0912,-0.0902,-0.0943,-0.0946,-0.0838,-0.0831,-0.0817,-0.0805,-0.0828,-0.0818,-0.093,-0.093,-0.093,0,-0.0454,-0.0457,-0.0487,-0.0493,-0.0495,-0.0552,-0.0547,-0.0583,-0.0651,-0.0638,-0.0704,-0.0769,-0.084,-0.0816,-0.0822,-0.088,-0.0897,-0.0858,-0.0816,-0.0804,-0.0793,-0.082,-0.081,-0.0925,-0.0926,-0.0926,-0.0927,0,-0.0441,-0.0443,-0.0443,-0.0465,-0.0473,-0.0477,-0.0514,-0.0531,-0.0576,-0.059,-0.0594,-0.0672,-0.0681,-0.0729,-0.0779,-0.0728,-0.0775,-0.0816,-0.0821,-0.0771,-0.0804,-0.0796,-0.0918,-0.0919,-0.0921,-0.0922,0,0,-0.0417,-0.0428,-0.043,-0.0411,-0.0451,-0.0442,-0.0456,-0.0442,-0.0413,-0.0477,-0.0433,-0.0498,-0.0497,-0.0521,-0.0576,-0.0577,-0.055,-0.0654,-0.0656,-0.0649,-0.0552,-0.0621,-0.0621,-0.0584,-0.0581,-0.0579,-0.0616,0,-0.0396,-0.0378,-0.0394,-0.0364,-0.0347,-0.037,-0.0357,-0.0351,-0.0372,-0.0353,-0.0373,-0.0379,-0.0431,-0.044,-0.0429,-0.0517,-0.0519,-0.0537,-0.0623,-0.0625,-0.0669,-0.0609,-0.0566,-0.0596,-0.0609,-0.0608,-0.0607,0,-0.0369,-0.0358,-0.0322,-0.0269,-0.026,-0.0241,-0.0184,-0.0186,-0.0162,-0.0177,-0.0141,-0.0186,-0.0155,-0.0257,-0.0276,-0.0285,-0.039,-0.0474,-0.0478,-0.0558,-0.0677,-0.0646,-0.0582,-0.0594,-0.0595,-0.0596,-0.0597,0,-0.0315,-0.0288,-0.0243,-0.0237,-0.0208,-0.016,-0.0134,-0.0103,-0.0098,-0.0054,-0.0053,-0.0006,-0.0028,-0.0077,-0.0245,-0.0248,-0.0333,-0.0361,-0.0517,-0.0526,-0.0508,-0.0519,-0.0388,-0.0388,-0.0388,-0.0388,-0.0388,0,-0.0277,-0.0243,-0.0197,-0.0179,-0.0104,-0.0077,-0.0004,0.0017,0.0044,0.0079,0.0067,0.0066,0.0008,-0.0071,-0.0188,-0.0322,-0.0274,-0.0462,-0.0517,-0.0479,-0.0486,-0.0497,-0.0509,-0.039,-0.0389,-0.0389,-0.0389,0,-0.0271,-0.0235,-0.0194,-0.0127,-0.0086,-0.0041,0.002,0.0063,0.0107,0.0139,0.0148,0.0121,0.0083,-0.0033,-0.0164,-0.0275,-0.0402,-0.0498,-0.047,-0.0518,-0.0604,-0.061,-0.0569,-0.0571,-0.0573,-0.0575,-0.0576,0,-0.029,-0.0253,-0.0184,-0.0152,-0.0126,-0.0046,0.0004,0.0067,0.0099,0.016,0.017,0.0141,0.0166,-0.0036,-0.0239,-0.04,-0.0468,-0.0556,-0.053,-0.0552,-0.0611,-0.0615,-0.0619,-0.0483,-0.0483,-0.0484,-0.0484,0,-0.0333,-0.0297,-0.0263,-0.0186,-0.012,-0.0062,0.0033,0.0081,0.0173,0.026,0.0357,0.0401,0.0205,0.0086,-0.0218,-0.0363,-0.0493,-0.057,-0.0574,-0.0458,-0.0477,-0.0534,-0.0539,-0.0487,-0.0487,-0.0487,-0.0487,-0.0486,-0.0375,-0.0358,-0.027,-0.0194,-0.0132,-0.0012,0.0105,0.0228,0.0385,0.0601,0.0538,0.0669,0.0374,0.0116,-0.0192,-0.052,-0.0501,-0.0596,-0.0591,-0.0587,-0.0584,-0.0607,-0.0642,-0.0642,-0.0643,-0.0643,-0.0644,0,-0.0376,-0.0313,-0.0266,-0.0125,-0.0026,-0.0001,0.0173,0.0361,0.065,0.0778,0.0951,0.0764,0.0572,0.0234,-0.0227,-0.0528,-0.0531,-0.0631,-0.055,-0.0546,-0.0543,-0.0534,-0.0581,-0.0581,-0.0581,-0.0582,0,0,-0.0351,-0.026,-0.02,0.0,0.0083,0.0288,0.0425,0.0707,0.0892,0.1128,0.1196,0.1197,0.0738,0.0423,-0.0006,-0.0269,-0.0329,-0.0332,-0.0353,-0.0203,-0.0194,-0.0503,-0.0484,0,0,0,0,0]}],[{"header":{"parameterUnit":"m.s-1","parameterCategory":2,"la1":30.2991,"la2":30.254,"lo1":-89.0895,"lo2":-89.0444,"dy":0.0017,"dx":0.0017,"nx":28,"ny":28,"refTime":"2025-05-26T03:00:00:Z","depth":"4","parameterNumber":2,"parameterNumberName":"U-component_of_CURRENTS"},"data":[0,0,0,0,0,0,0,0,0,0,0,0,0,0,0,0,0,0,0,0,0,0,0,0,0,0,0,0,0,0,0,0,0,0,0,0,0,0,0,0,0,0,0,0,0,0,0,0,0,0,0,0,0,0,0,0,0,0,0.0959,0.096,0,0.1026,0.1027,0.1027,0.1038,0.1038,0.1038,0.1037,0.1145,0.1148,0.1151,0,0,0,0,0,0,0,0,0,0,0,0,0,0.0859,0.086,0.0959,0.0961,0.0962,0.1026,0.1027,0.1027,0.1038,0.1038,0.1037,0.1037,0.1144,0.1148,0.1152,0,0,0,0,0,0,0,0,0,0,0,0,0,0.0908,0.0861,0.0959,0.0978,0.098,0.1026,0.1027,0.1027,0.1038,0.1038,0.1037,0.1037,0.1143,0.1147,0.1152,0.1188,0,0,0.1166,0.1168,0,0,0,0,0,0,0,0,0.0905,0.0911,0.0974,0.0976,0.0979,0.1027,0.1031,0.1084,0.1038,0.1012,0.1037,0.1037,0.1112,0.1119,0.1127,0.1193,0.1198,0.1167,0.117,0.1172,0.1173,0,0,0,0,0,0,0,0.0902,0.0909,0.0982,0.0975,0.0979,0.0989,0.0995,0.1041,0.1061,0.1014,0.1016,0.103,0.1113,0.1122,0.113,0.1199,0.1167,0.1171,0.1174,0.1175,0.1299,0.13,0,0,0,0,0,0,0.0901,0.0906,0.098,0.0984,0.0945,0.0991,0.0998,0.1009,0.106,0.1068,0.103,0.103,0.1114,0.1124,0.1134,0.1239,0.1171,0.1176,0.1179,0.1299,0.1299,0.13,0,0,0,0,0,0,0.0898,0.0907,0.0977,0.0949,0.096,0.0993,0.1006,0.101,0.1046,0.1072,0.108,0.1064,0.1114,0.1127,0.1188,0.1241,0.1178,0.1182,0.1298,0.1299,0.13,0.1413,0,0,0,0,0,0,0.0895,0.0905,0.0918,0.0949,0.0961,0.1016,0.1007,0.1012,0.1055,0.1056,0.1104,0.1111,0.1115,0.1181,0.1192,0.1246,0.1186,0.1297,0.1298,0.1299,0.1408,0.1417,0.1425,0,0,0,0,0,0.0891,0.0897,0.0918,0.0927,0.0975,0.1017,0.1025,0.1044,0.1057,0.1075,0.1105,0.1111,0.1193,0.1186,0.1199,0.1256,0.1297,0.1298,0.1299,0.1405,0.1416,0.1425,0,0,0,0,0,0,0.0859,0.0901,0.0923,0.0943,0.0988,0.1021,0.104,0.1066,0.1105,0.1116,0.1135,0.1146,0.1218,0.121,0.1201,0.1285,0.124,0.1244,0.1316,0.1326,0.1334,0.1287,0.119,0,0,0,0,0,0.0861,0.088,0.0929,0.0951,0.0974,0.1019,0.1043,0.1068,0.1105,0.1123,0.1157,0.1187,0.1229,0.1256,0.1284,0.1344,0.1342,0.1378,0.1386,0.1394,0.1359,0.1418,0.1429,0.1304,0.1304,0.1304,0,0,0.0856,0.0884,0.0895,0.0947,0.0982,0.1017,0.1032,0.1082,0.1119,0.1132,0.1194,0.1231,0.125,0.1312,0.1342,0.1318,0.1435,0.1395,0.1402,0.1362,0.142,0.1433,0.1444,0.1304,0.1304,0.1304,0,0,0.085,0.0885,0.0899,0.094,0.1005,0.1034,0.1058,0.1117,0.1152,0.1223,0.1239,0.1302,0.1361,0.1386,0.1406,0.1473,0.1481,0.1485,0.1498,0.1558,0.1569,0.1579,0.1629,0.1642,0.1486,0.1486,0.1486,0,0.0841,0.0873,0.0912,0.0944,0.0983,0.1045,0.1082,0.1125,0.1199,0.1241,0.125,0.1349,0.1392,0.1457,0.1476,0.1499,0.1518,0.1474,0.1572,0.1582,0.159,0.1638,0.1651,0.1492,0.1491,0.1491,0.149,0,0.0848,0.0886,0.0902,0.096,0.1006,0.1053,0.1122,0.118,0.1241,0.1289,0.1382,0.1429,0.1496,0.1517,0.1524,0.16,0.1593,0.1589,0.1557,0.161,0.1657,0.1669,0.15,0.1498,0.1496,0.1495,0,0,0.0792,0.0886,0.0894,0.0938,0.1027,0.1066,0.114,0.1226,0.1287,0.136,0.144,0.1514,0.1564,0.1582,0.1614,0.1632,0.1746,0.163,0.163,0.1694,0.1874,0.1775,0.1778,0.1769,0.1771,0.1773,0.1899,0,0.079,0.0849,0.09,0.0971,0.1015,0.1101,0.1161,0.1252,0.1337,0.1428,0.1495,0.1588,0.1586,0.165,0.168,0.1731,0.1774,0.1711,0.1795,0.1796,0.1716,0.1786,0.1778,0.1907,0.191,0.1912,0.1913,0,0.0778,0.0826,0.0892,0.0999,0.1026,0.1081,0.1208,0.128,0.1412,0.1474,0.1571,0.165,0.1742,0.1723,0.1829,0.1792,0.1841,0.1845,0.1852,0.1711,0.1717,0.183,0.1933,0.1932,0.193,0.1929,0.1928,0,0.0727,0.0821,0.0879,0.0917,0.1037,0.11,0.1179,0.1306,0.1381,0.1533,0.1607,0.1718,0.1814,0.1862,0.1935,0.1909,0.2006,0.2,0.1943,0.1938,0.1942,0.1929,0.2061,0.2061,0.2061,0.206,0.206,0,0.0704,0.0751,0.0869,0.0905,0.0978,0.1092,0.119,0.1274,0.1418,0.1504,0.1654,0.1727,0.1851,0.1945,0.197,0.1995,0.2077,0.1939,0.1961,0.1989,0.1981,0.1953,0.1938,0.2065,0.2064,0.2063,0.2062,0,0.0643,0.0718,0.0784,0.0914,0.0958,0.1022,0.1182,0.1251,0.14,0.1523,0.1591,0.178,0.1906,0.1997,0.2092,0.2055,0.2075,0.2064,0.2096,0.2119,0.1959,0.1949,0.2023,0.2021,0.2018,0.2017,0.2015,0,0.0619,0.0648,0.0765,0.0801,0.0868,0.0979,0.1045,0.121,0.1292,0.1527,0.1577,0.1783,0.1892,0.1949,0.2038,0.2102,0.2072,0.2081,0.1987,0.194,0.1955,0.1948,0.1941,0.2012,0.2011,0.2011,0.201,0,0.0562,0.0605,0.0656,0.0724,0.0799,0.0869,0.1,0.1051,0.1253,0.1396,0.1544,0.1663,0.1799,0.1892,0.1967,0.1992,0.2067,0.2058,0.2062,0.1974,0.1927,0.1943,0.1938,0.2003,0.2004,0.2004,0.2005,0,0.0509,0.0518,0.0582,0.0642,0.0715,0.0769,0.0842,0.0972,0.1079,0.1357,0.1393,0.1603,0.1766,0.1838,0.1891,0.1929,0.1905,0.1835,0.185,0.186,0.1748,0.1661,0.1672,0,0,0,0,0,0.0454,0.0465,0.05,0.0563,0.0632,0.0681,0.0815,0.0902,0.1101,0.1167,0.1289,0.1416,0.1563,0.1668,0.1681,0.182,0.1897,0.1826,0.1818,0.1961,0.197,0.1853,0,0,0,0,0,0,0.0418,0.0445,0.0466,0.0489,0.0524,0.0593,0.0675,0.0802,0.0862,0.1071,0.1157,0.1322,0.1478,0.1539,0.1648,0.1682,0.1648,0.1956,0.1953,0.1956,0.1964,0.1971,0.1854,0,0,0,0,0]},{"header":{"parameterUnit":"m.s-1","parameterCategory":2,"la1":30.2991,"la2":30.254,"lo1":-89.0895,"lo2":-89.0444,"dy":0.0017,"dx":0.0017,"nx":28,"ny":28,"refTime":"2025-05-26T03:00:00:Z","depth":"4","parameterNumber":3,"parameterNumberName":"V-component_of_CURRENTS"},"data":[0,0,0,0,0,0,0,0,0,0,0,0,0,0,0,0,0,0,0,0,0,0,0,0,0,0,0,0,0,0,0,0,0,0,0,0,0,0,0,0,0,0,0,0,0,0,0,0,0,0,0,0,0,0,0,0,0,0,0.0281,0.0281,0,0.025,0.0249,0.0249,0.0245,0.0246,0.0246,0.0246,0.0161,0.0159,0.0156,0,0,0,0,0,0,0,0,0,0,0,0,0,0.0248,0.0249,0.0282,0.0281,0.0281,0.025,0.0249,0.0249,0.0245,0.0246,0.0246,0.0246,0.0162,0.0159,0.0156,0,0,0,0,0,0,0,0,0,0,0,0,0,0.0245,0.025,0.0282,0.0274,0.0273,0.025,0.0249,0.0249,0.0245,0.0246,0.0246,0.0246,0.0163,0.0159,0.0156,0.0126,0,0,0.0144,0.0143,0,0,0,0,0,0,0,0,0.0246,0.0247,0.0276,0.0275,0.0273,0.0251,0.0206,0.0205,0.0245,0.0257,0.0246,0.0246,0.0185,0.018,0.0175,0.0122,0.0119,0.0144,0.0142,0.014,0.0139,0,0,0,0,0,0,0,0.0246,0.0247,0.027,0.0275,0.0274,0.0241,0.0242,0.0206,0.0219,0.0256,0.0255,0.025,0.0185,0.0179,0.0173,0.0117,0.0144,0.0141,0.0139,0.0137,0.0084,0.0085,0,0,0,0,0,0,0.0253,0.0248,0.0271,0.0269,0.0259,0.0242,0.0243,0.0259,0.0221,0.0216,0.025,0.025,0.0185,0.0177,0.017,0.0168,0.014,0.0137,0.0135,0.0083,0.0084,0.0085,0,0,0,0,0,0,0.0252,0.0256,0.0272,0.0255,0.0255,0.0243,0.026,0.0258,0.0257,0.0217,0.0211,0.0251,0.0185,0.0175,0.0157,0.0163,0.0135,0.0132,0.0082,0.0083,0.0084,0.0141,0,0,0,0,0,0,0.0252,0.0256,0.0277,0.0257,0.0256,0.0276,0.0259,0.0257,0.0252,0.0252,0.0215,0.0208,0.0185,0.0163,0.0153,0.0158,0.0129,0.0081,0.0083,0.0084,0.0138,0.0144,0.0149,0,0,0,0,0,0.0251,0.0286,0.0279,0.0282,0.0284,0.0276,0.0274,0.0265,0.0252,0.0262,0.0239,0.0209,0.0166,0.016,0.0149,0.0153,0.008,0.0082,0.0084,0.0136,0.0143,0.0149,0,0,0,0,0,0,0.0284,0.0288,0.028,0.0315,0.03,0.0276,0.0287,0.0266,0.0255,0.0255,0.0214,0.0205,0.0191,0.0166,0.0161,0.0144,0.012,0.0119,0.0163,0.0169,0.0175,0.0168,0.0126,0,0,0,0,0,0.0299,0.0326,0.031,0.0335,0.0333,0.0306,0.0302,0.029,0.0272,0.0268,0.0241,0.0214,0.0188,0.0176,0.0152,0.0136,0.0069,0.0134,0.014,0.0144,0.0133,0.0033,0.0027,0.0091,0.0091,0.0091,0,0,0.0316,0.0321,0.0336,0.0343,0.0332,0.0337,0.0306,0.0306,0.0308,0.0257,0.026,0.0227,0.0188,0.018,0.0171,0.016,0.0094,0.0147,0.0151,0.0136,0.0033,0.0027,0.0021,0.0092,0.0092,0.0092,0,0,0.0354,0.037,0.0399,0.0394,0.0383,0.0367,0.0367,0.0346,0.0341,0.0332,0.0296,0.0263,0.0239,0.0205,0.0184,0.02,0.0124,0.0205,0.0225,0.0129,0.0122,0.0115,0.0029,0.0014,0.021,0.021,0.021,0,0.0373,0.0403,0.0402,0.042,0.0413,0.0382,0.0391,0.0387,0.0361,0.0341,0.0347,0.0273,0.0245,0.0199,0.0221,0.0208,0.0147,0.0204,0.0133,0.0124,0.0116,0.003,0.0012,0.0213,0.0213,0.0213,0.0212,0,0.0422,0.0442,0.0457,0.0471,0.0468,0.0471,0.0455,0.0451,0.0434,0.0407,0.0365,0.0324,0.0269,0.0268,0.0255,0.019,0.0164,0.0147,0.0111,0.0112,0.0023,0.0003,0.0218,0.0216,0.0216,0.0215,0,0,0.046,0.0487,0.049,0.0489,0.0489,0.0484,0.0495,0.047,0.0452,0.0432,0.039,0.0356,0.031,0.0284,0.0248,0.0183,0.0086,0.0155,0.0149,0.0062,-0.0126,-0.0053,-0.0068,0.0055,0.0052,0.0049,-0.0162,0,0.0486,0.052,0.0528,0.0542,0.0545,0.0526,0.0534,0.0509,0.048,0.0442,0.0379,0.0335,0.0324,0.0294,0.0225,0.0117,0.0037,0.0145,-0.0107,-0.0115,-0.0058,-0.0087,0.004,-0.0177,-0.0182,-0.0185,-0.0188,0,0.0513,0.053,0.0554,0.0551,0.0552,0.0568,0.0537,0.0538,0.0484,0.0458,0.0392,0.0337,0.0244,0.0238,0.0031,0.0102,-0.0008,-0.009,-0.0101,-0.0071,-0.0078,-0.0181,-0.0224,-0.0221,-0.0218,-0.0216,-0.0214,0,0.0502,0.0532,0.0547,0.0551,0.0561,0.057,0.0573,0.0539,0.0536,0.0458,0.0436,0.0304,0.0246,0.0087,-0.0045,-0.003,-0.0271,-0.0287,-0.0337,-0.0334,-0.0363,-0.0354,-0.0459,-0.0459,-0.0458,-0.0458,-0.0457,0,0.0501,0.051,0.0551,0.056,0.0583,0.0579,0.059,0.0573,0.0545,0.0536,0.0444,0.0401,0.0208,0.007,-0.0074,-0.0247,-0.031,-0.035,-0.0388,-0.033,-0.0315,-0.0378,-0.0365,-0.0466,-0.0464,-0.0462,-0.0461,0,0.0482,0.0502,0.0529,0.0565,0.0582,0.0601,0.0643,0.0648,0.0613,0.0595,0.0575,0.0446,0.0269,0.0085,-0.018,-0.0267,-0.0455,-0.0503,-0.042,-0.0447,-0.0457,-0.044,-0.0621,-0.062,-0.0619,-0.0619,-0.0618,0,0.0476,0.0491,0.0552,0.0584,0.0614,0.0652,0.0689,0.0688,0.0698,0.0631,0.0624,0.0463,0.0364,0.004,-0.0156,-0.0448,-0.0464,-0.0572,-0.0522,-0.0458,-0.0478,-0.046,-0.0444,-0.0617,-0.0617,-0.0617,-0.0617,0,0.0479,0.0508,0.0539,0.0613,0.0669,0.072,0.077,0.0781,0.0771,0.0747,0.0657,0.0497,0.0306,0.0059,-0.0146,-0.0351,-0.051,-0.0567,-0.057,-0.0525,-0.0456,-0.0472,-0.0457,-0.0615,-0.0615,-0.0615,-0.0615,0,0.0496,0.0523,0.0576,0.0635,0.0707,0.0763,0.0788,0.0803,0.0806,0.0745,0.0712,0.0508,0.0382,0.0108,-0.0088,-0.0268,-0.0322,-0.0379,-0.0393,-0.0398,-0.024,-0.0114,-0.0217,0,0,0,0,0,0.0504,0.0532,0.0594,0.0654,0.0728,0.0764,0.083,0.0846,0.0844,0.0799,0.0758,0.0587,0.0303,0.0165,-0.0007,-0.009,-0.0359,-0.0297,-0.0433,-0.0603,-0.0606,-0.0448,0,0,0,0,0,0,0.0507,0.0559,0.0586,0.0661,0.0701,0.0779,0.0821,0.0826,0.0795,0.0768,0.0615,0.0549,0.0264,0.0393,-0.0015,-0.007,-0.0176,-0.0432,-0.0435,-0.0602,-0.0604,-0.0606,-0.0444,0,0,0,0,0]}]]